Flag for United Kingdom Weather past 2 weeks in Glasgow, Scotland, United Kingdom

Now
46 °F

Clear.


Feels Like: 42 °F
Forecast: 45 / 51 °F
Wind: 9 mph from West

Location: Glasgow Airport

Current Time: May 26, 2015 at 1:20:17 AM

Latest Report: May 26, 2015 at 12:50 AM


Visibility: 10 mi

Pressure: 30.15 "Hg

Humidity: 76%

Dew point: 39 °F

Location of GlasgowLocation

Historic Weather in Glasgow — Graph

°F

Glasgow temperature yesterday

Maximum temperature yesterday: 59 °F (at 1:50 PM)
Minimum temperature yesterday: 46 °F (at 1:50 AM)
Average temperature yesterday: 52 °F

Past Weeks' High & Low Weather Summary

 TemperatureHumidityPressure
High61 °F (May 11, 3:20 PM)100% (May 15, 8:20 PM)30.30 "Hg (May 15, 8:20 PM)
Low32 °F (May 15, 3:50 AM)44% (May 11, 7:20 PM)29.39 "Hg (May 18, 3:50 PM)
Average50 °F76%29.96 "Hg
* Reported May 11 12:20 AM — May 26 12:20 AM, Glasgow, Weather by CustomWeather, © 2015

Note: Actual official high and low records may vary slightly from our data, if they occured in-between our weather recording intervals... More about our weather records

Advertising

Glasgow weather history for previous 24 hours

 ConditionsComfort  
Time TempWeatherWind HumidityBarometerVisibility
12:20 AM
Tue, May 26
46 °FCool.6 mph76%30.15 "HgN/A
11:50 PM
Mon, May 25
48 °FClear.10 mph71%30.15 "Hg10 mi
11:20 PM48 °FCool.10 mph76%30.15 "HgN/A
10:50 PM50 °FClear.9 mph71%30.15 "Hg10 mi
10:20 PM48 °FSunny.8 mph76%30.15 "Hg10 mi
9:50 PM50 °FSunny.7 mph71%30.15 "Hg10 mi
9:20 PM50 °FSunny.7 mph71%30.12 "Hg10 mi
8:50 PM52 °FSunny.9 mph72%30.12 "Hg10 mi
8:20 PM54 °FPassing clouds.10 mph63%30.12 "HgN/A
7:50 PM55 °FSunny.13 mph63%30.12 "Hg10 mi
7:20 PM55 °FPassing clouds.13 mph63%30.09 "HgN/A
6:50 PM57 °FSunny.14 mph55%30.09 "Hg10 mi
6:20 PM57 °FPassing clouds.14 mph55%30.09 "HgN/A
5:50 PM57 °FPassing clouds.14 mph59%30.09 "HgN/A
5:20 PM57 °FSunny.15 mph59%30.09 "Hg10 mi
4:50 PM57 °FSunny.16 mph59%30.07 "Hg10 mi
4:20 PM59 °FSunny.17 mph55%30.07 "Hg10 mi
3:50 PM59 °FScattered clouds.14 mph55%30.07 "HgN/A
3:20 PM59 °FScattered clouds.14 mph55%30.07 "HgN/A
2:50 PM55 °FScattered clouds.16 mph63%30.07 "HgN/A
2:20 PM59 °FScattered clouds.15 mph55%30.07 "HgN/A
1:50 PM59 °FScattered clouds.15 mph55%30.07 "HgN/A
1:20 PM57 °FScattered clouds.15 mph59%30.07 "HgN/A
12:50 PM55 °FScattered clouds.13 mph63%30.07 "HgN/A
12:20 PM54 °FBroken clouds.10 mph67%30.07 "HgN/A
11:50 AM54 °FBroken clouds.12 mph67%30.07 "HgN/A
11:20 AM55 °FBroken clouds.12 mph63%30.07 "HgN/A
10:50 AM55 °FBroken clouds.14 mph63%30.07 "HgN/A
10:20 AM54 °FBroken clouds.10 mph72%30.07 "HgN/A
9:50 AM52 °FBroken clouds.10 mph77%30.07 "HgN/A
9:20 AM52 °FBroken clouds.9 mph77%30.07 "HgN/A
8:50 AM50 °FBroken clouds.10 mph82%30.07 "HgN/A
8:20 AM50 °FBroken clouds.13 mph82%30.07 "HgN/A
7:50 AM50 °FBroken clouds.9 mph82%30.04 "HgN/A
7:20 AM48 °FBroken clouds.8 mph82%30.04 "HgN/A
6:50 AM48 °FBroken clouds.6 mph87%30.04 "HgN/A
6:20 AM48 °FPartly sunny.7 mph87%30.04 "HgN/A
5:50 AM46 °FBroken clouds.9 mph93%30.04 "HgN/A
5:20 AM46 °FPartly cloudy.9 mph87%30.04 "HgN/A
4:50 AM48 °FPassing clouds.9 mph82%30.04 "HgN/A
4:20 AM48 °FPartly cloudy.10 mph82%30.04 "HgN/A
3:50 AM46 °FPassing clouds.10 mph82%30.04 "HgN/A
3:20 AM46 °FPassing clouds.10 mph82%30.04 "HgN/A
2:50 AM46 °FPassing clouds.12 mph82%30.04 "HgN/A
2:20 AM48 °FPassing clouds.10 mph82%30.04 "HgN/A
1:50 AM46 °FPartly cloudy.12 mph87%30.04 "HgN/A
1:20 AM48 °FPartly cloudy.12 mph82%30.04 "HgN/A
Weather by CustomWeather, © 2015

See weather overviewHow to use our weather pages